Location: Brzotice
(49.6628°N, 15.1313°E)
Time: 23:33:37
(UTC+00:00)

Daily predictions for brighter satellites

Satellite Brightness Start Highest point End
(mag) Time Altitude Azimuth Time Altitude Azimuth Time Altitude Azimuth
NOSS 2-1 (D) 4.3 16:58:27 10° NW 17:02:58 53° NE 17:09:15 10° ESE
CZ-2C R/B 3.3 16:57:43 10° SSE 17:03:33 83° ENE 17:09:13 10° NNW
Cosmos 1900 4.5 16:58:37 10° SSW 17:03:46 78° SE 17:08:56 10° NE
CZ-4 R/B 4.4 17:01:22 10° SSE 17:05:31 70° ENE 17:09:40 10° N
Cosmos 1689 Rocket 3.6 17:04:19 10° NE 17:06:16 16° E 17:08:11 10° SE
CSL-04 Rocket 4.3 17:02:58 10° SE 17:07:57 35° ENE 17:12:56 10° N
Cosmos 2219 4.4 17:03:33 10° NW 17:08:54 47° WSW 17:14:15 10° S
Cosmos 1408 Rocket 3.8 17:06:05 10° SSW 17:10:33 81° WNW 17:15:02 10° N
Cosmos 292 Rocket 4.2 17:06:22 10° S 17:10:46 39° ESE 17:15:12 10° NE
Cosmos 1242 Rocket 2.5 17:10:14 10° NNW 17:13:47 89° SW 17:17:21 10° S
Cosmos 1818 4.0 17:09:00 10° NW 17:14:28 70° SW 17:19:53 10° SSE
COSMO-SKYMED 1 2.6 17:14:30 10° NNE 17:18:54 84° ESE 17:23:14 10° SSW
Cosmos 1656 4.0 17:15:07 10° SW 17:20:37 69° WNW 17:26:07 10° NNE
YAOGAN 1 2.6 17:16:28 10° SSE 17:20:43 60° ENE 17:25:00 10° N
Cosmos 1515 Rocket 4.4 17:16:46 10° NNW 17:21:06 57° W 17:25:25 10° S
Okean-O 2.7 17:17:19 10° SSE 17:21:40 60° ENE 17:26:03 10° N
Helios 1A Rocket 3.4 17:18:23 10° SE 17:22:11 39° ENE 17:26:00 10° N
FALCON 9 DEB 4.4 17:20:05 10° SSW 17:22:39 22° SE 17:24:43 13° E
Cosmos 1500 Rocket 3.5 17:18:19 10° S 17:22:39 73° E 17:26:59 10° NNE
Cosmos 1980 Rocket 2.6 17:18:47 10° S 17:24:02 41° ESE 17:29:21 10° NE
SL-4 R/B 2.0 17:21:24 10° SW 17:24:53 49° SSE 17:27:44 13° E
APEX 4.4 17:23:19 10° N 17:25:26 16° NE 17:26:40 13° ENE
Meteor 2-17 Rocket 4.4 17:21:14 10° S 17:27:16 63° E 17:33:17 10° NNE
CSL-04 DEB 4.4 17:25:44 10° NNE 17:29:40 82° WNW 17:33:37 10° SSW
Lacrosse 5 rocket 2.0 17:25:17 10° WNW 17:29:41 59° SW 17:33:52 10° SE
FALCON 9 DEB 4.0 17:28:16 10° SSW 17:31:05 29° SE 17:33:00 16° E
Sich 1 3.5 17:28:03 10° SSE 17:32:05 38° E 17:36:11 10° NNE
Cosmos 44 3.8 17:28:28 10° NW 17:33:55 74° SW 17:39:18 10° SSE
Cosmos 1452 Rocket 3.6 17:28:52 10° SSW 17:34:07 88° WNW 17:39:25 10° NNE
Cosmos 2322 Rocket 3.9 17:32:10 10° ESE 17:33:02 11° ESE 17:33:02 11° ESE
Cosmos 2082 4.2 17:29:00 10° NNW 17:34:34 64° WSW 17:40:06 10° SSE
Cosmos 968 Rocket 4.4 17:30:39 10° N 17:35:14 29° NE 17:39:07 13° ESE
CZ-4B R/B 1.8 17:33:48 10° N 17:36:48 57° WNW 17:39:46 10° SSW
SJ-11-01 4.2 17:35:03 10° SSE 17:39:43 84° ENE 17:44:26 10° NNW
Cosmos 724 4.5 17:34:54 10° SSW 17:40:46 56° ESE 17:46:50 10° NE
Cosmos 1707 Rocket 3.8 17:37:00 10° N 17:41:18 46° ENE 17:45:32 10° SSE
Cosmos 1867 3.9 17:36:41 10° S 17:41:47 43° ESE 17:46:56 10° NE
Cosmos 1437 2.7 17:43:27 10° N 17:46:16 45° ENE 17:49:03 10° SSE
Cosmos 1633 Rocket 3.8 17:44:18 10° SSE 17:48:09 30° E 17:52:01 10° NNE
Cosmos 1697 Rocket 2.9 17:42:36 10° SSW 17:48:16 78° WNW 17:53:57 10° NNE
USA 234 3.4 17:42:03 10° ENE 17:48:31 59° SE 17:54:57 10° SW
ERS-2 2.0 17:45:12 10° NNE 17:48:51 64° ESE 17:52:28 10° S
Cosmos 2360 4.2 17:43:31 10° SSW 17:49:13 90° ESE 17:54:59 10° NNE
MOS 1 Rocket 4.4 17:45:19 10° N 17:49:58 50° WNW 17:54:51 10° SW
Cosmos 1110 Rocket 4.0 17:46:03 10° S 17:51:18 66° ESE 17:56:36 10° NNE
SL-16 R/B 3.3 17:48:56 10° SSE 17:53:09 22° E 17:55:08 18° ENE
DMSP B5D1-3 4.5 17:50:13 10° NNE 17:55:23 69° ESE 18:00:31 10° S
PSLV R/B 3.9 17:53:33 10° NNE 17:57:43 88° WNW 18:01:49 10° SSW
SAR-Lupe-4 3.4 17:54:28 10° NNE 17:58:03 76° ESE 18:01:38 10° S
NOSS 2-1 (E) 4.3 17:54:03 10° NW 17:59:01 82° SW 18:06:03 10° SE
Cosmos 2369 3.8 17:54:26 10° SSW 18:00:06 79° WNW 18:05:51 10° NNE
USA 305 3.1 17:56:55 10° SW 18:01:04 51° SE 18:03:06 27° E
Nadezhda 3 Rocket 4.2 17:56:16 10° N 18:02:24 49° ENE 18:08:33 10° SSE
SeaSat 1 2.4 17:59:32 10° NNE 18:04:31 87° NW 18:09:27 10° SSW
Cosmos 2154 Rocket 4.3 17:58:47 10° SSE 18:04:35 42° E 18:10:22 10° NNE
Cosmos 1607 4.5 17:58:13 10° SW 18:04:36 62° NW 18:11:04 10° NE
DMSP B5D2-2 4.4 17:59:45 10° NNE 18:04:42 40° E 18:09:36 10° SSE
Ariane Rocket 3.6 18:03:12 21° ESE 18:05:58 36° ENE 18:10:38 10° N
Resurs 01 Rocket 3.3 18:07:04 16° NE 18:07:04 16° NE 18:09:15 10° NNE
CZ-4 R/B 2.9 18:03:24 10° SSW 18:06:59 37° W 18:10:38 10° NNW
Cosmos 2263 Rocket 2.1 18:02:56 10° NNW 18:08:34 82° ENE 18:14:07 10° SSE
USA 307 3.0 18:04:40 10° SW 18:08:51 54° SE 18:10:34 32° E
Cosmos 2074 Rocket 3.9 18:07:17 10° S 18:13:31 73° E 18:19:47 10° NNE
FALCON 9 DEB 3.0 18:11:59 10° SW 18:15:06 56° SSE 18:15:24 52° SE
USA 306 2.9 18:10:59 10° SW 18:15:12 61° SSE 18:16:44 36° E
SAR-Lupe-1 4.4 18:12:28 10° N 18:16:03 66° WNW 18:19:37 10° SSW
USA 308 2.9 18:14:52 10° SW 18:19:05 62° SSE 18:20:26 40° E
Cosmos 1470 Rocket 4.1 18:16:01 10° SSE 18:20:13 36° E 18:24:14 10° NNE
Cosmos 1805 Rocket 4.3 18:17:03 10° SSW 18:21:20 54° WNW 18:25:41 10° N
Cosmos 1515 3.7 18:17:33 10° N 18:21:21 56° ENE 18:22:19 42° SE
Cosmos 2184 Rocket 3.9 18:20:00 10° S 18:26:09 85° E 18:32:22 10° N
H-2A R/B 3.7 18:21:47 10° SSW 18:26:48 38° W 18:31:53 10° NNW
ARGOS 4.0 18:22:13 10° S 18:27:29 52° W 18:32:48 10° NNW
USA 186 4.1 18:29:49 10° N 18:29:49 10° N 18:29:50 10° N
Meteor 2-4 Rocket 4.1 18:22:21 10° N 18:27:49 44° ENE 18:29:44 34° ESE
SJ-6B 2.8 18:28:38 40° SE 18:29:57 64° ENE 18:34:02 10° N
OBJECT-B 2.1 18:32:13 29° NNE 18:32:13 29° NNE 18:34:02 10° N
Cosmos 1271 Rocket 3.2 18:27:13 10° NNW 18:30:54 58° W 18:34:34 10° S
COSMOS 2455 3.8 18:26:16 10° NW 18:32:01 47° WSW 18:37:42 10° S
SL-08 RB Rocket 4.3 18:27:53 10° S 18:32:17 56° W 18:36:46 10° NNW
Cosmos 2278 3.9 18:26:51 10° SW 18:32:31 71° WNW 18:38:14 10° NNE
Meteor 1-18 Rocket 4.2 18:26:52 10° N 18:32:49 73° ENE 18:38:04 14° SSE
FALCON 9 DEB 3.0 18:30:38 10° WSW 18:33:29 68° SW 18:33:29 68° SW
Meteor 1-25 Rocket 4.2 18:29:01 10° S 18:34:49 83° E 18:40:35 10° NNE
GP-B 3.0 18:33:07 32° SSE 18:35:03 61° E 18:39:27 10° N
CZ-2C R/B 2.8 18:31:24 10° NNE 18:36:59 79° WNW 18:42:26 10° SSW
Cosmos 1689 Rocket 4.4 18:34:49 10° N 18:37:15 25° WNW 18:39:41 10° SW
Okean 1 3.2 18:33:36 10° N 18:37:38 84° E 18:38:49 45° SSE
MetOp-A 4.1 18:32:42 10° SSE 18:38:04 89° WSW 18:43:28 10° NNW
Cosmos 1461 3.8 18:33:46 10° S 18:37:22 38° SSE 18:37:22 38° SSE
Cosmos 1602 3.5 18:35:07 10° S 18:38:59 81° E 18:42:55 10° NNE
Cosmos 44 Rocket 3.6 18:35:03 10° NW 18:40:13 56° NE 18:41:15 48° E
FALCON 9 DEB 3.8 18:37:14 10° WNW 18:40:28 45° N 18:40:28 45° N
Cosmos 1862 Rocket 3.6 18:38:05 10° NNW 18:42:35 81° W 18:45:36 21° S
Cosmos 1666 Rocket 3.8 18:38:52 10° SSW 18:43:12 67° WNW 18:47:31 10° N
ATLAS 5 CENTAUR R/B 3.7 18:32:23 10° WSW 18:44:07 49° NW 18:46:35 22° NNE
Cosmos 2278 Rocket 4.1 18:40:56 10° N 18:44:08 15° NNE 18:44:39 15° NE
Cosmos 2084 4.1 18:40:07 10° WSW 18:44:16 52° NW 18:46:18 28° NNE
BREEZE-M DEB (TANK) 2.0 18:44:02 10° W 18:46:16 78° W 18:46:16 78° W
Cosmos 1844 Rocket 3.1 18:41:20 10° NNW 18:46:39 42° NE 18:47:04 42° ENE
Meteor 2-12 Rocket 4.3 18:40:55 10° S 18:46:55 68° E 18:52:58 10° NNE
Cosmos 1486 Rocket 3.9 18:43:14 10° NNW 18:48:34 86° ENE 18:50:25 42° SSE
Gbstr 26 Del rocket 3.3 18:44:03 10° SW 18:48:38 70° SSE 18:49:30 58° E
Cosmos 2341 Rocket 4.1 18:46:42 32° SE 18:49:14 49° E 18:55:16 10° NNE
Resurs 1-3 3.8 18:50:32 55° NE 18:50:32 55° NE 18:54:23 10° N
Cosmos 962 Rocket 4.5 18:45:07 10° SSE 18:51:06 56° E 18:57:13 10° NNE
SPOT 3 Rocket 3.9 18:53:33 46° NE 18:53:33 46° NE 18:58:14 10° N
Cosmos 1339 Rocket 4.4 18:56:24 10° N 19:02:27 59° ENE 19:03:02 56° E
SL-4 R/B 2.9 19:00:54 10° W 19:03:19 39° WNW 19:03:19 39° WNW
Lacrosse 5 rocket 4.3 19:06:42 10° WSW 19:07:59 11° WSW 19:09:14 10° SW
Cosmos 1980 Rocket 3.4 19:02:45 10° WSW 19:08:05 41° NW 19:13:28 10° NNE
Cosmos 1354 Rocket 4.0 19:04:08 10° NNW 19:09:06 66° NE 19:09:06 66° NE
Cosmos 2084 Rocket 4.3 19:09:46 10° NW 19:12:58 45° NNW 19:12:58 45° NNW
Cosmos 2322 Rocket 2.9 19:11:36 10° SSW 19:15:03 39° S 19:15:03 39° S
Cosmos 968 Rocket 4.2 19:12:13 10° NNW 19:17:18 51° WSW 19:19:11 35° SSW
Cosmos 1503 Rocket 4.0 19:18:49 10° NNW 19:23:43 77° NW 19:23:43 77° NW
USA 234 3.5 19:29:23 42° NE 19:31:37 65° NNW 19:38:04 10° WSW
Terra 4.4 19:37:35 11° NNE 19:37:35 11° NNE 19:37:50 10° N
SJ 16-02 4.0 19:31:28 10° N 19:31:50 12° N 19:31:50 12° N
SL-16 R/B 2.3 19:31:02 10° SW 19:36:42 71° WNW 19:37:13 66° NNW
Resurs 01 Rocket 3.3 19:44:38 29° NNW 19:44:38 29° NNW 19:46:50 10° NNW
Ariane Rocket 4.3 19:43:24 30° SW 19:44:55 36° W 19:49:39 10° NNW
USA 281 4.2 20:22:43 38° N 20:22:43 38° N 20:26:54 10° NNW
Cosmos 2278 Rocket 4.0 20:24:08 10° NNW 20:26:30 25° N 20:26:30 25° N
Cosmos 1844 Rocket 4.3 20:25:23 10° NW 20:28:45 30° WNW 20:28:45 30° WNW
